South St. Paul, MN

8:28 AM CDT on May 26, 2017 (GMT -0500)
South Saint Paul Municipal-Fleming

Weather History for KSGS - August, 2013

Change the Weather History Date:

Monday, August 19, 2013

  Actual Average (KSTP) Record (KSTP)
Temperature  
Mean Temperature 77 °F -  
Max Temperature 88 °F 78 °F 90 °F (2003)
Min Temperature 66 °F 58 °F 45 °F (2004)
Cooling Degree Days 12    
Growing Degree Days 27 (Base 50)    
Moisture  
Dew Point 63 °F    
Average Humidity 63    
Maximum Humidity 80    
Minimum Humidity 44    
Precipitation  
Precipitation 0.00 in - - ()
Sea Level Pressure  
Sea Level Pressure 29.97 in    
Wind  
Wind Speed 5 mph (South)    
Max Wind Speed 12 mph    
Max Gust Speed 17 mph    
Visibility 10 miles    
Events      
Averages and records for this station are not official NWS values.
T = Trace of Precipitation, MM = Missing Value Source: NWS Daily Summary

Daily Weather History Graph

Daily Weather History Graph

Search for Another Location

Airport or City:

Trip Planner

Search our weather history database for the weather conditions in past years. The results will help you decide how hot, cold, wet, or windy it might be!

Date:

Astronomy

Aug. 19, 2013 Rise Set
Actual Time 6:19 AM CDT 8:11 PM CDT
Civil Twilight 5:47 AM CDT 8:42 PM CDT
Nautical Twilight 5:09 AM CDT 9:20 PM CDT
Astronomical Twilight 4:27 AM CDT 10:02 PM CDT
Moon 7:02 PM CDT (8/19) 4:37 AM CDT (8/19)
Length of Visible Light 14h 54m
Length of Day
13h 52m
Waxing Gibbous, 97% of the Moon is Illuminated
Aug 19
Waxing Gibbous
Aug 20
Full
Aug 28
Last Quarter
Sep 5
New
Sep 12
First Quarter

Hourly Weather History & Observations

Time (CDT) Temp. Heat Index Dew Point Humidity Pressure Visibility Wind Dir Wind Speed Gust Speed Precip Events Conditions
12:13 AM 69.8 °F - 59.9 °F 71% 30.03 in 10.0 mi Calm Calm - N/A   Mostly Cloudy
12:33 AM 69.8 °F - 59.5 °F 70% 30.04 in 10.0 mi SE 3.5 mph - N/A   Overcast
12:53 AM 69.3 °F - 59.9 °F 72% 30.03 in 10.0 mi South 4.6 mph - N/A   Scattered Clouds
1:13 AM 68.9 °F - 59.4 °F 72% 30.03 in 10.0 mi South 3.5 mph - N/A   Scattered Clouds
1:32 AM 68.9 °F - 59.2 °F 71% 30.03 in 10.0 mi South 5.8 mph - N/A   Scattered Clouds
1:53 AM 68.9 °F - 59.2 °F 71% 30.04 in 10.0 mi SW 5.8 mph - N/A   Mostly Cloudy
2:13 AM 68.9 °F - 59.0 °F 71% 30.03 in 10.0 mi SW 5.8 mph - N/A   Overcast
2:32 AM 68.7 °F - 58.6 °F 70% 30.01 in 10.0 mi South 3.5 mph - N/A   Mostly Cloudy
2:53 AM 68.2 °F - 58.5 °F 71% 30.01 in 10.0 mi South 3.5 mph - N/A   Clear
3:12 AM 67.5 °F - 58.5 °F 73% 30.01 in 10.0 mi South 3.5 mph - N/A   Clear
3:33 AM 67.3 °F - 59.0 °F 75% 30.01 in 10.0 mi Calm Calm - N/A   Clear
3:53 AM 67.5 °F - 59.0 °F 74% 30.01 in 10.0 mi Calm Calm - N/A   Mostly Cloudy
4:12 AM 67.5 °F - 59.4 °F 75% 30.01 in 10.0 mi Calm Calm - N/A   Mostly Cloudy
4:33 AM 67.3 °F - 60.3 °F 78% 30.01 in 10.0 mi Calm Calm - N/A   Mostly Cloudy
4:53 AM 67.3 °F - 60.4 °F 79% 30.00 in 10.0 mi SSE 3.5 mph - N/A   Mostly Cloudy
5:13 AM 67.3 °F - 59.9 °F 77% 30.00 in 10.0 mi Calm Calm - N/A   Scattered Clouds
5:33 AM 67.1 °F - 59.9 °F 78% 29.99 in 10.0 mi SSE 4.6 mph - N/A   Clear
5:52 AM 66.6 °F - 60.1 °F 80% 29.99 in 10.0 mi SSE 4.6 mph - N/A   Clear
6:13 AM 66.7 °F - 59.5 °F 78% 29.99 in 10.0 mi SSE 3.5 mph - N/A   Clear
6:33 AM 66.6 °F - 59.4 °F 78% 29.99 in 10.0 mi SSE 3.5 mph - N/A   Clear
6:52 AM 67.1 °F - 59.2 °F 76% 29.99 in 10.0 mi SSE 4.6 mph - N/A   Clear
7:13 AM 67.3 °F - 59.0 °F 75% 29.99 in 10.0 mi South 5.8 mph - N/A   Clear
7:33 AM 67.5 °F - 59.0 °F 74% 29.99 in 10.0 mi South 4.6 mph - N/A   Clear
7:52 AM 68.2 °F - 59.4 °F 73% 29.98 in 10.0 mi South 8.1 mph - N/A   Clear
8:13 AM 68.9 °F - 59.7 °F 72% 29.98 in 10.0 mi SSW 5.8 mph - N/A   Clear
8:33 AM 69.8 °F - 60.1 °F 71% 29.98 in 10.0 mi South 5.8 mph - N/A   Clear
8:53 AM 71.4 °F - 60.6 °F 69% 29.98 in 10.0 mi SW 6.9 mph - N/A   Clear
9:13 AM 72.7 °F - 61.0 °F 67% 29.99 in 10.0 mi SSW 4.6 mph - N/A   Clear
9:32 AM 72.9 °F - 61.3 °F 67% 29.99 in 10.0 mi South 4.6 mph - N/A   Scattered Clouds
9:53 AM 73.4 °F - 61.7 °F 67% 29.99 in 10.0 mi SSE 3.5 mph - N/A   Scattered Clouds
10:12 AM 73.4 °F - 61.9 °F 67% 29.99 in 10.0 mi Calm Calm - N/A   Scattered Clouds
10:33 AM 73.2 °F - 62.2 °F 68% 29.99 in 10.0 mi SSE 4.6 mph - N/A   Clear
10:53 AM 73.8 °F - 62.6 °F 68% 29.99 in 10.0 mi SSE 3.5 mph - N/A   Scattered Clouds
11:12 AM 75.2 °F - 63.0 °F 66% 29.99 in 10.0 mi South 8.1 mph - N/A   Scattered Clouds
11:33 AM 76.5 °F - 62.8 °F 62% 29.99 in 10.0 mi South 5.8 mph - N/A   Clear
11:53 AM 77.2 °F - 62.6 °F 61% 29.99 in 10.0 mi SSW 5.8 mph - N/A   Mostly Cloudy
12:13 PM 79.7 °F - 63.3 °F 57% 29.99 in 10.0 mi South 5.8 mph - N/A   Mostly Cloudy
12:33 PM 79.2 °F - 63.3 °F 58% 29.98 in 10.0 mi South 5.8 mph - N/A   Scattered Clouds
12:53 PM 80.6 °F 82.3 °F 64.4 °F 58% 29.98 in 10.0 mi South 4.6 mph - N/A   Clear
1:13 PM 83.3 °F 84.4 °F 63.5 °F 51% 29.97 in 10.0 mi SSW 6.9 mph - N/A   Clear
1:33 PM 83.3 °F 84.4 °F 63.5 °F 51% 29.97 in 10.0 mi SSW 6.9 mph - N/A   Clear
1:52 PM 84.2 °F 85.6 °F 64.2 °F 51% 29.96 in 10.0 mi SSW 9.2 mph - N/A   Clear
2:13 PM 85.5 °F 86.8 °F 64.2 °F 49% 29.96 in 10.0 mi SSW 9.2 mph - N/A   Clear
2:33 PM 85.8 °F 87.4 °F 64.8 °F 49% 29.95 in 10.0 mi South 6.9 mph - N/A   Clear
2:53 PM 86.7 °F 88.4 °F 64.6 °F 48% 29.95 in 7.0 mi South 8.1 mph - N/A   Clear
3:13 PM 86.5 °F 88.1 °F 64.8 °F 48% 29.95 in 10.0 mi South 9.2 mph - N/A   Scattered Clouds
3:32 PM 87.8 °F 89.1 °F 64.0 °F 45% 29.95 in 10.0 mi SSW 9.2 mph - N/A   Scattered Clouds
3:53 PM 88.3 °F 89.5 °F 63.7 °F 44% 29.94 in 10.0 mi SSW 10.4 mph - N/A   Scattered Clouds
4:13 PM 88.2 °F 89.3 °F 63.9 °F 44% 29.94 in 10.0 mi SSW 9.2 mph - N/A   Clear
4:33 PM 87.8 °F 89.1 °F 63.9 °F 45% 29.93 in 10.0 mi South 9.2 mph - N/A   Clear
4:53 PM 88.5 °F 89.8 °F 64.0 °F 44% 29.92 in 10.0 mi South 8.1 mph - N/A   Clear
5:12 PM 87.8 °F 88.8 °F 63.7 °F 44% 29.92 in 10.0 mi SW 11.5 mph 16.1 mph N/A   Clear
5:33 PM 86.4 °F 87.8 °F 64.4 °F 48% 29.92 in 10.0 mi SSW 11.5 mph 16.1 mph N/A   Scattered Clouds
5:53 PM 86.9 °F 88.3 °F 64.6 °F 47% 29.92 in 10.0 mi South 11.5 mph 17.3 mph N/A   Mostly Cloudy
6:12 PM 86.2 °F 87.9 °F 64.9 °F 49% 29.92 in 10.0 mi SSW 8.1 mph - N/A   Scattered Clouds
6:33 PM 86.0 °F 87.9 °F 65.1 °F 50% 29.91 in 10.0 mi SSW 11.5 mph 16.1 mph N/A   Clear
6:53 PM 85.1 °F 87.1 °F 65.7 °F 52% 29.91 in 10.0 mi South 6.9 mph - N/A   Clear
7:13 PM 84.6 °F 86.6 °F 65.7 °F 53% 29.91 in 10.0 mi South 6.9 mph - N/A   Clear
7:32 PM 84.2 °F 86.6 °F 66.2 °F 55% 29.91 in 10.0 mi South 8.1 mph - N/A   Clear
7:53 PM 83.3 °F 85.3 °F 65.7 °F 55% 29.91 in 10.0 mi SSW 9.2 mph - N/A   Scattered Clouds
8:13 PM 82.8 °F 84.7 °F 65.7 °F 56% 29.92 in 10.0 mi South 6.9 mph - N/A   Clear
8:33 PM 82.0 °F 84.3 °F 66.2 °F 59% 29.92 in 10.0 mi South 5.8 mph - N/A   Clear
8:53 PM 81.5 °F 83.7 °F 66.4 °F 60% 29.92 in 10.0 mi South 5.8 mph - N/A   Clear
9:13 PM 81.5 °F 83.7 °F 66.2 °F 60% 29.93 in 10.0 mi South 6.9 mph - N/A   Scattered Clouds
9:33 PM 81.0 °F 83.2 °F 66.2 °F 61% 29.93 in 10.0 mi South 6.9 mph - N/A   Mostly Cloudy
9:53 PM 80.1 °F 82.2 °F 66.4 °F 63% 29.93 in 10.0 mi SSE 8.1 mph - N/A   Scattered Clouds
10:12 PM 79.2 °F - 66.6 °F 65% 29.94 in 10.0 mi SSE 6.9 mph - N/A   Scattered Clouds
10:33 PM 78.6 °F - 66.6 °F 66% 29.94 in 10.0 mi South 6.9 mph - N/A   Scattered Clouds
10:53 PM 77.9 °F - 66.2 °F 67% 29.94 in 10.0 mi South 6.9 mph - N/A   Scattered Clouds
11:13 PM 77.5 °F - 65.8 °F 67% 29.93 in 10.0 mi South 6.9 mph - N/A   Scattered Clouds
11:33 PM 77.2 °F - 65.7 °F 67% 29.93 in 10.0 mi South 9.2 mph - N/A   Scattered Clouds
11:53 PM 76.5 °F - 65.3 °F 68% 29.93 in 10.0 mi South 6.9 mph - N/A   Clear